FW6610 Weather Reports


time (UTC)temp
C
wind
direction
speed
KPH
gust
KPH
rain 1hr
cm
rain 24hr
cm
rain mn
cm
humidity
%
barometer
mb
20260502183530 12 0 3.2 8.0 0.00 0.53 0.53 64 1011.1
20260502183044 12 357 3.2 11.3 0.00 0.53 0.53 65 1011.2
20260502182530 12 309 4.8 11.3 0.00 0.53 0.53 66 1011.1
20260502182029 12 326 4.8 11.3 0.00 0.53 0.53 67 1011.1
20260502181546 12 300 0.0 3.2 0.00 0.53 0.53 68 1011.2
20260502181029 12 271 1.6 8.0 0.00 0.53 0.53 66 1011.1
20260502180530 12 317 1.6 8.0 0.00 0.53 0.53 68 1011.1
20260502164030 12 304 1.6 8.0 0.00 0.53 0.53 73 1011.3
20260502163530 12 334 1.6 11.3 0.00 0.53 0.53 72 1011.3
20260502163048 12 102 1.6 17.7 0.00 0.53 0.53 73 1011.4
20260502162530 12 18 8.0 17.7 0.00 0.53 0.53 72 1011.4
20260502162029 12 302 3.2 9.7 0.00 0.53 0.53 73 1011.5
20260502161536 11 8 3.2 9.7 0.00 0.53 0.53 74 1011.5
20260502161029 11 333 0.0 8.0 0.00 0.53 0.53 75 1011.6
20260502160531 11 331 3.2 6.4 0.00 0.53 0.53 75 1011.5
20260502152030 10 0 0.0 4.8 0.00 0.53 0.53 79 1011.8
20260502151553 10 0 1.6 4.8 0.00 0.53 0.53 78 1011.8
20260502151029 10 252 0.0 6.4 0.00 0.53 0.53 79 1011.9
20260502150529 10 293 3.2 9.7 0.00 0.53 0.53 77 1011.9
20260502130532 10 139 0.0 4.8 0.00 0.53 0.53 93 1012.2
20260502123529 8 0 0.0 3.2 0.03 0.53 0.53 95 1012.3
20260502123049 8 333 0.0 3.2 0.03 0.53 0.53 95 1012.4
20260502122534 8 299 0.0 1.6 0.05 0.53 0.53 95 1012.3
20260502122030 8 0 0.0 1.6 0.08 0.53 0.53 96 1012.3
20260502121541 7 0 0.0 0.0 0.08 0.53 0.53 96 1012.4
20260502121028 7 0 0.0 0.0 0.08 0.53 0.53 96 1012.4
20260502120533 7 0 0.0 0.0 0.08 0.53 0.53 96 1012.5
20260502115529 7 0 0.0 0.0 0.08 0.53 0.53 96 1012.4
20260502115032 7 0 0.0 0.0 0.08 0.53 0.53 96 1012.3
20260502114549 7 0 0.0 0.0 0.08 0.53 0.53 96 1012.2
20260502114030 7 0 0.0 0.0 0.05 0.51 0.51 96 1012.4
20260502113530 7 0 0.0 0.0 0.05 0.51 0.51 96 1012.5
20260502113045 7 0 0.0 0.0 0.05 0.51 0.51 96 1012.6
20260502112530 7 0 0.0 0.0 0.05 0.48 0.48 96 1012.9
20260502112030 7 0 0.0 0.0 0.05 0.46 0.46 96 1012.7
20260502111541 7 0 0.0 0.0 0.10 0.46 0.46 96 1012.5
20260502111030 7 0 0.0 0.0 0.15 0.46 0.46 96 1012.5
20260502110531 7 0 0.0 0.0 0.20 0.46 0.46 96 1012.3
20260502110044 7 0 0.0 0.0 0.23 0.46 0.46 96 1012.4
20260502105532 7 0 0.0 0.0 0.23 0.46 0.46 96 1012.3
20260502105030 7 0 0.0 0.0 0.23 0.46 0.46 96 1012.1
20260502104543 7 0 0.0 0.0 0.25 0.46 0.46 96 1012.1
20260502104030 7 0 0.0 0.0 0.25 0.46 0.46 96 1012.0
20260502103532 7 0 0.0 0.0 0.25 0.46 0.46 96 1011.9
20260502103038 7 0 0.0 0.0 0.25 0.46 0.46 96 1012.3
20260502102533 7 0 0.0 0.0 0.23 0.43 0.43 96 1012.2
20260502102030 7 0 0.0 0.0 0.23 0.41 0.41 95 1012.4
20260502101557 7 0 0.0 1.6 0.18 0.36 0.36 95 1012.3
20260502101029 7 0 0.0 1.6 0.10 0.28 0.28 95 1012.3
20260502100529 7 0 0.0 3.2 0.08 0.25 0.25 95 1012.2
20260502091028 7 0 0.0 0.0 0.10 0.18 0.18 95 1011.8
20260502090529 7 0 0.0 1.6 0.13 0.18 0.18 95 1011.9
20260502071029 7 0 0.0 1.6 0.05 0.05 0.05 91 1011.8
20260502070531 7 148 0.0 1.6 0.03 0.03 0.03 90 1012.0
20260502070049 7 0 0.0 1.6 0.03 0.03 0.03 89 1011.8
20260502065530 7 349 0.0 1.6 0.03 0.03 0.03 88 1011.9
20260502065029 7 255 0.0 1.6 0.00 0.00 0.00 87 1012.1
20260502064553 7 0 0.0 3.2 0.00 0.00 0.00 87 1011.9
20260502064032 7 0 0.0 3.2 0.00 0.00 0.00 87 1011.8
20260502063529 7 328 0.0 1.6 0.00 0.00 0.00 88 1011.9
20260502063042 7 95 0.0 1.6 0.00 0.00 0.00 88 1011.7
20260502062532 7 112 0.0 1.6 0.00 0.00 0.00 87 1011.8
20260502062032 7 0 0.0 1.6 0.00 0.00 0.00 87 1011.8
20260502061539 7 112 0.0 1.6 0.00 0.00 0.00 86 1011.8
20260502061029 7 0 0.0 0.0 0.00 0.00 0.00 85 1011.8
20260502060529 8 0 0.0 1.6 0.00 0.00 0.00 84 1011.9
20260502060035 8 0 0.0 1.6 0.00 0.00 0.00 83 1011.9
20260502055530 8 0 0.0 1.6 0.00 0.00 0.00 84 1011.9
20260502055030 8 113 0.0 1.6 0.00 0.00 0.00 82 1011.9
20260502054535 8 0 0.0 1.6 0.00 0.00 0.00 81 1012.0
20260502054029 8 0 0.0 3.2 0.00 0.00 0.00 81 1011.9
20260502053529 8 0 0.0 3.2 0.00 0.00 0.00 80 1011.8
20260502053036 8 0 0.0 8.0 0.00 0.00 0.00 80 1012.0
20260502052530 8 0 3.2 8.0 0.00 0.00 0.00 81 1011.8
20260502052030 8 355 0.0 1.6 0.00 0.00 0.00 84 1011.9
20260502051545 8 0 0.0 1.6 0.00 0.00 0.00 82 1011.9
20260502051032 8 53 0.0 3.2 0.00 0.00 0.00 80 1012.0
20260502050535 9 52 0.0 3.2 0.00 0.00 0.00 76 1012.3
20260502050042 9 11 0.0 3.2 0.00 0.00 0.00 73 1012.4
20260502045529 9 241 0.0 1.6 0.00 0.00 0.00 75 1012.3
20260502045030 9 0 0.0 1.6 0.00 0.00 0.00 74 1012.1
20260502044540 9 0 0.0 1.6 0.00 0.00 0.00 74 1011.9
20260502044029 9 0 0.0 1.6 0.00 0.00 0.00 75 1011.7
20260502043529 9 0 0.0 1.6 0.00 0.00 0.00 75 1011.8
20260502043036 9 0 0.0 1.6 0.00 0.00 0.00 73 1011.6
20260502042530 9 240 0.0 1.6 0.00 0.00 0.00 75 1011.5
20260502042029 9 0 0.0 1.6 0.00 0.00 0.00 72 1011.7
20260502041536 9 0 0.0 1.6 0.00 0.00 0.00 75 1011.8
20260502041029 9 0 0.0 1.6 0.00 0.00 0.00 74 1011.7
20260502040529 9 0 0.0 1.6 0.00 0.00 0.00 73 1011.7
20260502040038 9 0 0.0 0.0 0.00 0.00 0.00 73 1011.6
20260502035529 9 0 0.0 0.0 0.00 0.00 0.00 73 1011.6
20260502035029 9 0 0.0 1.6 0.00 0.00 0.00 70 1011.7
20260502034545 9 0 0.0 1.6 0.00 0.00 0.00 70 1011.7
20260502034030 9 0 0.0 1.6 0.00 0.00 0.00 70 1011.7
20260502033529 8 0 0.0 0.0 0.00 0.00 0.00 68 1011.6
20260502033044 8 0 0.0 0.0 0.00 0.00 0.00 70 1011.7
20260502032529 8 0 0.0 0.0 0.00 0.00 0.00 72 1011.9
20260502032029 8 0 0.0 0.0 0.00 0.00 0.00 72 1011.9
20260502031543 8 0 0.0 0.0 0.00 0.00 0.00 74 1012.0
20260502031029 8 0 0.0 1.6 0.00 0.00 0.00 73 1011.9
20260502030529 9 0 0.0 1.6 0.00 0.00 0.00 72 1012.0
20260502030041 9 0 0.0 1.6 0.00 0.00 0.00 70 1012.0
20260502025528 8 0 0.0 0.0 0.00 0.00 0.00 67 1011.8
20260502025029 8 0 0.0 0.0 0.00 0.00 0.00 68 1011.8
20260502024541 8 0 0.0 0.0 0.00 0.00 0.00 69 1011.6
20260502024030 8 0 0.0 0.0 0.00 0.00 0.00 68 1011.7
20260502023529 8 0 0.0 0.0 0.00 0.00 0.00 70 1011.7
20260502023040 8 0 0.0 0.0 0.00 0.00 0.00 67 1011.7
20260502022528 8 0 0.0 0.0 0.00 0.00 0.00 72 1011.8
20260502022028 8 0 0.0 0.0 0.00 0.00 0.00 68 1011.8
20260502021540 8 0 0.0 0.0 0.00 0.00 0.00 68 1011.7
20260502021026 8 0 0.0 0.0 0.00 0.00 0.00 68 1011.8
20260502020529 8 0 0.0 0.0 0.00 0.00 0.00 66 1011.9
20260502020035 8 0 0.0 0.0 0.00 0.00 0.00 66 1011.8
20260502015530 8 0 0.0 0.0 0.00 0.00 0.00 66 1011.8
20260502015029 8 0 0.0 0.0 0.00 0.00 0.00 66 1011.9
20260502014545 9 0 0.0 0.0 0.00 0.00 0.00 66 1011.9
20260502014029 9 0 0.0 0.0 0.00 0.00 0.00 65 1011.8
20260502013527 9 0 0.0 0.0 0.00 0.00 0.00 65 1011.7
20260502013041 9 0 0.0 0.0 0.00 0.00 0.00 61 1011.7
20260502012526 10 0 0.0 0.0 0.00 0.00 0.00 62 1011.6
20260502012027 9 262 0.0 0.0 0.00 0.00 0.00 64 1011.7
20260502011541 9 0 0.0 0.0 0.00 0.00 0.00 62 1011.6
20260502011030 10 0 0.0 0.0 0.00 0.00 0.00 63 1011.5
20260502010529 10 0 0.0 0.0 0.00 0.00 0.00 64 1011.4
20260502010041 9 0 0.0 0.0 0.00 0.00 0.00 65 1011.4
20260502005526 9 0 0.0 0.0 0.00 0.00 0.00 65 1011.3
20260502005026 9 0 0.0 0.0 0.00 0.00 0.00 64 1011.3
20260502004538 9 0 0.0 0.0 0.00 0.00 0.00 64 1011.2
20260502004026 10 0 0.0 0.0 0.00 0.00 0.00 63 1011.1
20260502003525 10 0 0.0 0.0 0.00 0.00 0.00 61 1011.1
20260502003046 10 0 0.0 0.0 0.00 0.00 0.00 60 1010.9
20260502002532 10 0 0.0 0.0 0.00 0.00 0.00 60 1011.0
20260502002026 11 0 0.0 0.0 0.00 0.00 0.00 59 1011.0
20260502001545 11 0 0.0 0.0 0.00 0.00 0.00 57 1011.0
20260502001029 11 0 0.0 0.0 0.00 0.00 0.00 57 1010.8
20260502000529 11 0 0.0 0.0 0.00 0.00 0.00 54 1010.7
20260502000041 11 0 0.0 0.0 0.00 0.00 0.00 54 1010.7
20260501235529 12 0 0.0 0.0 0.00 0.00 0.00 53 1010.6
20260501235029 12 0 0.0 0.0 0.00 0.00 0.00 51 1010.5
20260501234545 13 0 0.0 0.0 0.00 0.00 0.00 49 1010.4
20260501234032 13 0 0.0 3.2 0.00 0.00 0.00 47 1010.4
20260501233530 14 0 0.0 3.2 0.00 0.00 0.00 44 1010.2
20260501233041 14 269 0.0 3.2 0.00 0.00 0.00 42 1010.1
20260501232528 15 36 0.0 6.4 0.00 0.00 0.00 42 1010.2
20260501232031 15 294 0.0 11.3 0.00 0.00 0.00 40 1010.2
20260501231536 15 339 0.0 11.3 0.00 0.00 0.00 41 1010.1
20260501231029 15 328 1.6 8.0 0.00 0.00 0.00 41 1010.1
20260501230528 15 275 1.6 8.0 0.00 0.00 0.00 38 1010.0
20260501230038 15 0 1.6 6.4 0.00 0.00 0.00 38 1010.0
20260501225525 15 0 1.6 6.4 0.00 0.00 0.00 39 1009.9
20260501225025 16 262 3.2 6.4 0.00 0.00 0.00 40 1010.0
20260501224542 16 0 0.0 8.0 0.00 0.00 0.00 37 1009.9
20260501224029 17 0 0.0 8.0 0.00 0.00 0.00 36 1009.7
20260501223529 16 303 0.0 6.4 0.00 0.00 0.00 37 1009.6
20260501223041 16 273 1.6 6.4 0.00 0.00 0.00 38 1009.8
20260501222530 16 308 3.2 8.0 0.00 0.00 0.00 36 1009.7
20260501222029 16 313 3.2 9.7 0.00 0.00 0.00 37 1009.6
20260501221542 16 324 3.2 9.7 0.00 0.00 0.00 37 1009.8
20260501221029 16 356 3.2 12.9 0.00 0.00 0.00 35 1009.8
20260501220529 16 275 3.2 12.9 0.00 0.00 0.00 35 1009.8
20260501220046 16 252 4.8 22.5 0.00 0.00 0.00 36 1009.8
20260501215529 16 295 4.8 22.5 0.00 0.00 0.00 35 1009.8
20260501215028 16 302 3.2 12.9 0.00 0.00 0.00 35 1009.7
20260501214550 16 306 4.8 12.9 0.00 0.00 0.00 37 1009.9
20260501214121 16 338 4.8 12.9 0.00 0.00 0.00 35 1009.7
20260501213529 17 293 6.4 17.7 0.00 0.00 0.00 35 1009.8
20260501213042 17 276 1.6 17.7 0.00 0.00 0.00 35 1009.8
20260501212529 17 297 6.4 17.7 0.00 0.00 0.00 37 1009.8
20260501212029 17 246 4.8 12.9 0.00 0.00 0.00 34 1009.8
20260501211543 17 286 4.8 14.5 0.00 0.00 0.00 36 1009.9
20260501211026 16 20 4.8 14.5 0.00 0.00 0.00 36 1009.7
20260501210529 16 18 4.8 14.5 0.00 0.00 0.00 34 1009.8
20260501210045 17 6 1.6 14.5 0.00 0.00 0.00 37 1009.8
20260501205529 16 300 4.8 27.4 0.00 0.00 0.00 34 1009.8
20260501205029 16 276 8.0 27.4 0.00 0.00 0.00 37 1009.7
20260501204615 16 299 6.4 14.5 0.00 0.00 0.00 36 1009.6
20260501204029 16 278 3.2 20.9 0.00 0.00 0.00 36 1009.5
20260501203529 16 5 9.7 22.5 0.00 0.00 0.00 39 1009.5
20260501203038 16 302 8.0 22.5 0.00 0.00 0.00 34 1009.4
20260501202527 16 341 9.7 22.5 0.00 0.00 0.00 32 1009.6
20260501202026 16 325 4.8 19.3 0.00 0.00 0.00 34 1009.6
20260501201546 16 318 8.0 19.3 0.00 0.00 0.00 34 1009.7
20260501201026 17 267 3.2 17.7 0.00 0.00 0.00 34 1009.6
20260501200529 16 240 4.8 17.7 0.00 0.00 0.00 39 1009.6
20260501200042 16 14 4.8 22.5 0.00 0.00 0.00 35 1009.6
20260501195529 16 232 8.0 22.5 0.00 0.00 0.00 34 1009.6
20260501195029 16 326 1.6 14.5 0.00 0.00 0.00 36 1009.6
20260501194543 16 145 3.2 16.1 0.00 0.00 0.00 36 1009.6
20260501194029 16 269 4.8 16.1 0.00 0.00 0.00 34 1009.7
20260501193529 16 33 4.8 12.9 0.00 0.00 0.00 35 1009.6
20260501193045 16 118 1.6 22.5 0.00 0.00 0.00 34 1009.6
20260501192529 16 179 4.8 22.5 0.00 0.00 0.00 36 1009.7
20260501192029 16 330 6.4 17.7 0.00 0.00 0.00 36 1009.7
20260501191542 16 333 4.8 17.7 0.00 0.00 0.00 35 1009.8
20260501191029 16 287 1.6 24.1 0.00 0.00 0.00 38 1009.9
20260501190529 16 271 6.4 24.1 0.00 0.00 0.00 38 1010.0
20260501190039 16 3 9.7 24.1 0.00 0.00 0.00 40 1010.1
20260501185526 16 1 12.9 24.1 0.00 0.00 0.00 36 1010.1
20260501185029 16 345 6.4 16.1 0.00 0.00 0.00 37 1010.1
20260501184547 16 288 9.7 22.5 0.00 0.00 0.00 40 1010.3